Location: Observatory
(52.1446°N, 0.4624°W)
Time: 02:05:08
(UTC+00:00)

ISS - Pass Details

Date: 05 December 2021
Orbit: 413 x 422 km, 51.6° (Epoch: 28 January)

Event Time Altitude Azimuth Distance (km) Brightness Sun altitude
Rises 17:35:01 0° 282° (WNW) 2,388 1.2 -15.0°
Reaches altitude 10° 17:37:15 10° 273° (W) 1,518 0.2 -15.3°
Maximum altitude 17:40:21 32° 208° (SSW) 746 -2.1 -15.7°
Enters shadow 17:43:23 10° 143° (SE) 1,494 -1.2 -16.2°
